When you browse on this site, cookies collect data to enhance your experience and personalize the content and advertising you see.
Visit our Privacy Policy to learn more. By continuing to use the site, you agree to this use of cookies and data.
  • In Portugal
  • List of Countries
  • For 7 days
  • Water Temperature
  • Weather Map
  • Weather Widgets
  • user-avatar
    Login

    Hourly Weather Kiustendil

    Today, 25 May, Monday

    Time Temperature Precipitation Wind Pressure Humidity
    00:00 +3°C° 0 mm 1 mps 628 mmHg 91%
    01:00 +3°C° 0 mm 1 mps 627 mmHg 92%
    02:00 +3°C° 0 mm 1 mps 627 mmHg 92%
    03:00 +2°C° 0 mm 1 mps 627 mmHg 92%
    04:00 +2°C° 0 mm 1 mps 627 mmHg 92%
    05:00 +2°C° 0 mm 2 mps 627 mmHg 86%
    06:00 +4°C° 0 mm 2 mps 628 mmHg 80%
    07:00 +5°C° 0 mm 2 mps 629 mmHg 73%
    08:00 +7°C° 0 mm 3 mps 629 mmHg 66%
    09:00 +8°C° 0 mm 3 mps 629 mmHg 59%
    10:00 +9°C° 0 mm 3 mps 629 mmHg 52%
    11:00 +9°C° 0 mm 3 mps 629 mmHg 50%
    12:00 +10°C° 0 mm 3 mps 629 mmHg 48%
    13:00 +10°C° 0 mm 3 mps 629 mmHg 47%
    14:00 +10°C° 0 mm 3 mps 628 mmHg 49%
    15:00 +9°C° 0 mm 3 mps 628 mmHg 51%
    16:00 +9°C° 0 mm 3 mps 628 mmHg 54%
    17:00 +7°C° 0 mm 3 mps 627 mmHg 61%
    18:00 +5°C° 0 mm 2 mps 626 mmHg 69%
    19:00 +3°C° 0 mm 2 mps 625 mmHg 76%
    20:00 +2°C° 0 mm 2 mps 625 mmHg 79%
    21:00 +2°C° 0 mm 2 mps 625 mmHg 81%
    22:00 +2°C° 0 mm 1 mps 626 mmHg 84%
    23:00 +2°C° 0 mm 1 mps 625 mmHg 85%

    Tomorrow, 26 May, Tuesday

    Time Temperature Precipitation Wind Pressure Humidity
    00:00 +1°C° 0 mm 1 mps 625 mmHg 86%
    01:00 +1°C° 0 mm 1 mps 625 mmHg 87%
    02:00 +1°C° 0 mm 1 mps 625 mmHg 88%
    03:00 +1°C° 0 mm 1 mps 625 mmHg 89%
    04:00 +1°C° 0 mm 1 mps 624 mmHg 90%
    05:00 +2°C° 0 mm 1 mps 625 mmHg 83%
    06:00 +4°C° 0 mm 1 mps 626 mmHg 77%
    07:00 +5°C° 0 mm 1 mps 626 mmHg 71%
    08:00 +5°C° 0.3 mm 2 mps 626 mmHg 71%
    09:00 +6°C° 0.3 mm 2 mps 627 mmHg 71%
    10:00 +6°C° 0.3 mm 2 mps 627 mmHg 71%
    11:00 +7°C° 0.8 mm 2 mps 627 mmHg 70%
    12:00 +7°C° 0.8 mm 2 mps 626 mmHg 70%
    13:00 +8°C° 0.8 mm 2 mps 626 mmHg 69%
    14:00 +8°C° 0.8 mm 3 mps 626 mmHg 69%
    15:00 +7°C° 0.8 mm 3 mps 626 mmHg 70%
    16:00 +7°C° 0.8 mm 3 mps 625 mmHg 70%
    17:00 +5°C° 0.4 mm 3 mps 625 mmHg 76%
    18:00 +4°C° 0.4 mm 2 mps 625 mmHg 82%
    19:00 +3°C° 0.4 mm 2 mps 624 mmHg 87%
    20:00 +2°C° 0.1 mm 2 mps 624 mmHg 88%
    21:00 +2°C° 0.1 mm 2 mps 624 mmHg 89%
    22:00 +1°C° 0.1 mm 2 mps 624 mmHg 90%
    23:00 +1°C° 0 mm 2 mps 624 mmHg 91%

    Day after tomorrow, 27 May, Wednesday

    Time Temperature Precipitation Wind Pressure Humidity
    00:00 +1°C° 0 mm 2 mps 624 mmHg 91%
    01:00 +2°C° 0 mm 1 mps 624 mmHg 91%
    02:00 +1°C° 0 mm 1 mps 624 mmHg 91%
    03:00 +1°C° 0 mm 1 mps 624 mmHg 91%
    04:00 -1°C° 0 mm 2 mps 624 mmHg 91%
    05:00 +1°C° 0 mm 2 mps 624 mmHg 88%
    06:00 +3°C° 0 mm 2 mps 625 mmHg 84%
    07:00 +5°C° 0 mm 2 mps 626 mmHg 80%
    08:00 +6°C° 0.2 mm 2 mps 627 mmHg 76%
    09:00 +7°C° 0.2 mm 3 mps 627 mmHg 72%
    10:00 +8°C° 0.2 mm 3 mps 627 mmHg 67%
    11:00 +9°C° 0.6 mm 3 mps 627 mmHg 66%
    12:00 +9°C° 0.6 mm 3 mps 627 mmHg 65%
    13:00 +10°C° 0.6 mm 4 mps 627 mmHg 64%
    14:00 +8°C° 0.4 mm 4 mps 627 mmHg 64%
    15:00 +8°C° 0.4 mm 4 mps 627 mmHg 64%
    16:00 +8°C° 0.4 mm 4 mps 627 mmHg 64%
    17:00 +7°C° 0.1 mm 3 mps 626 mmHg 71%
    18:00 +5°C° 0.1 mm 2 mps 625 mmHg 78%
    19:00 +3°C° 0.1 mm 2 mps 625 mmHg 86%
    20:00 +3°C° 0 mm 2 mps 625 mmHg 87%
    21:00 +2°C° 0 mm 2 mps 625 mmHg 89%
    22:00 +3°C° 0 mm 1 mps 625 mmHg 91%
    23:00 +3°C° 0 mm 1 mps 625 mmHg 91%

    28 May, Thursday

    Time Temperature Precipitation Wind Pressure Humidity
    00:00 +3°C° 0 mm 1 mps 625 mmHg 92%
    01:00 +3°C° 0 mm 1 mps 625 mmHg 92%
    02:00 +3°C° 0 mm 1 mps 624 mmHg 92%
    03:00 +3°C° 0 mm 1 mps 624 mmHg 93%
    04:00 +3°C° 0 mm 1 mps 624 mmHg 93%
    05:00 +4°C° 0 mm 1 mps 625 mmHg 88%
    06:00 +4°C° 0 mm 2 mps 625 mmHg 83%
    07:00 +6°C° 0 mm 2 mps 626 mmHg 78%
    08:00 +7°C° 0.3 mm 2 mps 626 mmHg 74%
    09:00 +8°C° 0.3 mm 3 mps 627 mmHg 69%
    10:00 +9°C° 0.3 mm 3 mps 627 mmHg 65%
    11:00 +10°C° 0.5 mm 3 mps 627 mmHg 62%
    12:00 +10°C° 0.5 mm 4 mps 627 mmHg 59%
    13:00 +11°C° 0.5 mm 4 mps 626 mmHg 56%
    14:00 +10°C° 0.3 mm 4 mps 626 mmHg 58%
    15:00 +10°C° 0.3 mm 4 mps 626 mmHg 60%
    16:00 +10°C° 0.3 mm 4 mps 626 mmHg 63%
    17:00 +8°C° 0.2 mm 3 mps 625 mmHg 70%
    18:00 +6°C° 0.2 mm 2 mps 624 mmHg 78%
    19:00 +4°C° 0.2 mm 2 mps 624 mmHg 85%
    20:00 +3°C° 0 mm 2 mps 624 mmHg 86%
    21:00 +3°C° 0 mm 2 mps 624 mmHg 88%
    22:00 +3°C° 0 mm 1 mps 624 mmHg 89%
    23:00 +3°C° 0 mm 1 mps 623 mmHg 89%

    29 May, Friday

    Time Temperature Precipitation Wind Pressure Humidity
    00:00 +3°C° 0 mm 1 mps 623 mmHg 88%
    01:00 +3°C° 0 mm 1 mps 623 mmHg 88%
    02:00 +2°C° 0 mm 1 mps 623 mmHg 89%
    03:00 +2°C° 0 mm 1 mps 623 mmHg 89%
    04:00 +2°C° 0 mm 1 mps 623 mmHg 90%
    05:00 +4°C° 0 mm 1 mps 624 mmHg 85%
    06:00 +6°C° 0 mm 1 mps 624 mmHg 80%
    07:00 +7°C° 0 mm 1 mps 625 mmHg 75%
    08:00 +7°C° 0.3 mm 2 mps 625 mmHg 71%
    09:00 +8°C° 0.3 mm 2 mps 626 mmHg 66%
    10:00 +10°C° 0.3 mm 2 mps 626 mmHg 62%
    11:00 +10°C° 0.5 mm 2 mps 626 mmHg 61%
    12:00 +10°C° 0.5 mm 2 mps 626 mmHg 61%
    13:00 +12°C° 0.5 mm 2 mps 625 mmHg 60%
    14:00 +12°C° 0.6 mm 2 mps 625 mmHg 61%
    15:00 +12°C° 0.6 mm 2 mps 625 mmHg 61%
    16:00 +12°C° 0.6 mm 2 mps 625 mmHg 62%
    17:00 +10°C° 0.3 mm 1 mps 624 mmHg 69%
    18:00 +8°C° 0.3 mm 1 mps 624 mmHg 76%
    19:00 +6°C° 0.3 mm 1 mps 623 mmHg 84%
    20:00 +5°C° 0 mm 1 mps 623 mmHg 84%
    21:00 +5°C° 0 mm 1 mps 623 mmHg 85%
    22:00 +4°C° 0 mm 1 mps 623 mmHg 85%
    23:00 +4°C° 0 mm 1 mps 623 mmHg 85%

    30 May, Saturday

    Time Temperature Precipitation Wind Pressure Humidity
    00:00 +3°C° 0 mm 1 mps 623 mmHg 85%
    01:00 +3°C° 0 mm 1 mps 623 mmHg 86%
    02:00 +3°C° 0 mm 1 mps 623 mmHg 86%
    03:00 +3°C° 0 mm 1 mps 623 mmHg 86%
    04:00 +1°C° 0 mm 0 mps 623 mmHg 87%
    05:00 +5°C° 0 mm 1 mps 623 mmHg 82%
    06:00 +7°C° 0 mm 1 mps 624 mmHg 77%
    07:00 +9°C° 0 mm 1 mps 625 mmHg 72%
    08:00 +10°C° 0 mm 1 mps 626 mmHg 66%
    09:00 +12°C° 0 mm 1 mps 626 mmHg 61%
    10:00 +13°C° 0 mm 2 mps 627 mmHg 56%
    11:00 +14°C° 0.4 mm 2 mps 626 mmHg 56%
    12:00 +14°C° 0.4 mm 2 mps 626 mmHg 57%
    13:00 +13°C° 0.4 mm 3 mps 626 mmHg 57%
    14:00 +13°C° 0.5 mm 3 mps 626 mmHg 60%
    15:00 +13°C° 0.5 mm 3 mps 626 mmHg 63%
    16:00 +12°C° 0.5 mm 3 mps 625 mmHg 66%
    17:00 +12°C° 0.8 mm 2 mps 625 mmHg 72%
    18:00 +9°C° 0.8 mm 2 mps 624 mmHg 78%
    19:00 +8°C° 0.8 mm 1 mps 623 mmHg 84%
    20:00 +7°C° 0.8 mm 1 mps 623 mmHg 85%
    21:00 +7°C° 0.8 mm 1 mps 623 mmHg 86%
    22:00 +6°C° 0.8 mm 1 mps 623 mmHg 88%
    23:00 +6°C° 0.4 mm 1 mps 623 mmHg 87%
    Show more